Current weather by "City, St" or "zip code"  
 

Current Conditions: Jordan, Jordan Airport, MT

NULL


14.0 F

Last Updated on Oct 24 2020, 7:48 pm MDT
Humidity: 77%
Wind Speed: N 8.1 mph
Barometer 30.45 in
Dewpoint: 8.1 F
Visibility: NULL mi
Precip: --
Heat Index: NA
Wind Chill: 3 F
Current conditions at:

Jordan, Jordan Airport, MT (KJDN)

Lat: 47.32583 Lon: 106.9475

Local Radar Image active severe weather and emergency alerts image image weather storm and storm spotter reports image weather observation monitoring service image
Local
Radar
Active
Alerts
Storm Reports Obs
Monitoring

Sign-up For Email & Text Message Weather Alert Notification Services



Advertise Here

Observation History for Jordan, Jordan Airport, MT


Time Wind
(mph)
Vis
(mi)
Weather Precip (in) Temperature (F) Relative
Humidity
Wind
Chill
(F)
Heat
Index
(F)
Pressure
Air Dwpt altimeter
(in)
sea level
(mb)
Rmks
7:48 pm MDT N 8.1 NULL NULL -- 14.0 8.1 77% 3 NA 30.45 1036.5
6:48 pm MDT N 11.5 NULL NULL -- 17.0 10.0 74% 4 NA 30.44 1035.9
5:48 pm MDT N 10.4 NULL NULL -- 19.0 9.0 65% 7 NA 30.42 1035.1
4:48 pm MDT NE 10.4 NULL NULL -- 19.0 12.9 77% 7 NA 30.40 1034.3
3:48 pm MDT NE 9.2 NULL NULL -- 20.0 12.9 74% 9 NA 30.37 1033.2
2:48 pm MDT NE 12.7 NULL NULL -- 20.0 10.9 68% 7 NA 30.35 1032.6
1:48 pm MDT NE 16.1 NULL NULL -- 20.0 10.9 68% 6 NA 30.34 1032.1
12:48 pm MDT NE 16.1 NULL NULL -- 20.0 12.0 71% 6 NA 30.33 1031.6
11:48 am MDT NE 18.4 G 26.5 NULL NULL -- 19.0 12.0 74% 4 NA 30.32 1031.3
10:48 am MDT NE 19.6 G 28.8 NULL NULL 00.01 18.0 12.0 77% 2 NA 30.30 1030.7
9:48 am MDT NE 15.0 G 26.5 NULL NULL -- 18.0 12.0 77% 4 NA 30.28 1030.1
8:48 am MDT NE 19.6 NULL NULL -- 18.0 10.0 71% 2 NA 30.25 1028.9
7:48 am MDT NE 20.7 G 28.8 NULL Breezy -- 18.0 10.9 74% 1 NA 30.20 1027.1
6:48 am MDT NE 17.3 G 26.5 NULL NULL -- 18.0 10.9 74% 3 NA 30.18 1026.3
5:48 am MDT NE 17.3 NULL NULL -- 19.0 10.9 71% 4 NA 30.15 1025.2
4:48 am MDT NE 16.1 NULL NULL -- 19.0 12.0 74% 4 NA 30.13 1024.7
3:48 am MDT E 16.1 NULL NULL -- 20.0 12.9 74% 6 NA 30.13 1024.4
2:48 am MDT E 16.1 G 25.3 NULL NULL -- 20.0 14.0 78% 6 NA 30.12 1024.0
1:48 am MDT E 15.0 G 25.3 NULL NULL -- 20.0 14.0 78% 6 NA 30.11 1023.8
12:48 am MDT E 15.0 G 24.2 NULL NULL -- 21.0 15.1 78% 7 NA 30.11 1023.6
11:48 pm MDT E 13.8 G 23.0 NULL NULL -- 21.0 16.0 81% 8 NA 30.12 1024.1
10:48 pm MDT E 13.8 NULL NULL -- 21.0 16.0 81% 8 NA 30.13 1024.6
9:48 pm MDT E 12.7 NULL NULL -- 21.0 16.0 81% 9 NA 30.13 1024.8
8:48 pm MDT E 11.5 NULL NULL -- 22.0 17.1 82% 10 NA 30.15 1025.7

Regional Weather Observation


Glasgow, Glasgow International Airport, MT (KGGW)

Overcast
16.0 F

Wolf Point, Clayton Airport, MT (KOLF)

Overcast
15.0 F

Miles City, Frank Wiley Field Airport, MT (KMLS)

Unknown Precip
16.0 F

Lewistown, Lewistown Municipal Airport, MT (KLWT)

Partly Cloudy
7.0 F

Glendive, Dawson Community Airport, MT (KGDV)

Overcast
14.0 F

Sidney-Richland, MT (KSDY)

Overcast
17.0 F